GW6707 Weather Reports


Display with metric or nautical units.
time (UTC)temp
F
wind
direction
speed
MPH
gust
MPH
rain 1hr
in
rain 24hr
in
rain mn
in
humidity
%
barometer
mb
20260506200025 50 307 0.0 2.0 0.00 1.59 1.50 88 1012.3
20260506194509 49 311 0.0 2.0 0.00 1.62 1.50 89 1012.0
20260506193017 49 207 0.0 2.0 0.00 1.68 1.50 90 1011.8
20260506191519 50 310 0.0 2.0 0.03 1.70 1.50 89 1011.6
20260506190023 51 317 0.0 2.0 0.04 1.71 1.50 87 1011.3
20260506184526 51 320 4.0 6.0 0.04 1.74 1.50 87 1011.2
20260506183011 50 309 1.0 9.0 0.04 1.74 1.50 89 1010.3
20260506181516 51 203 0.0 2.0 0.00 1.71 1.46 88 1011.1
20260506180022 52 94 0.0 2.0 0.00 1.70 1.45 86 1011.0
20260506174524 53 5 1.0 2.0 0.00 1.72 1.45 83 1010.6
20260506173009 53 331 2.0 4.0 0.00 1.76 1.45 82 1010.2
20260506171520 52 268 0.0 5.0 0.00 1.80 1.45 83 1010.0
20260506170019 53 231 0.0 3.0 0.00 1.81 1.44 79 1009.8
20260506164529 54 293 1.0 5.0 0.00 1.81 1.44 75 1009.5
20260506163028 54 331 3.0 8.0 0.00 1.82 1.44 75 1009.5
20260506161510 55 211 1.0 6.0 0.00 1.82 1.44 72 1009.2
20260506160018 55 272 1.0 7.0 0.00 1.83 1.44 77 1008.9
20260506154530 53 329 1.0 10.0 0.00 1.83 1.44 81 1009.3
20260506153036 53 340 1.0 4.0 0.00 1.84 1.44 83 1009.7
20260506151531 53 316 1.0 4.0 0.00 1.84 1.44 82 1009.8
20260506150014 54 219 2.0 4.0 0.00 1.84 1.44 80 1009.7
20260506144548 55 287 2.0 8.0 0.00 1.85 1.44 82 1009.6
20260506143023 56 271 2.0 6.0 0.00 1.85 1.44 84 1009.5
20260506141529 56 328 3.0 7.0 0.00 1.85 1.44 87 1009.8
20260506140040 55 206 1.0 2.0 0.00 1.85 1.44 91 1009.7
20260506134517 54 228 1.0 2.0 0.02 1.85 1.44 92 1009.8
20260506133020 53 316 0.0 2.0 0.42 1.85 1.44 94 1010.0
20260506131506 52 196 1.0 2.0 0.70 1.86 1.44 95 1010.1
20260506130005 50 113 0.0 2.0 0.70 1.87 1.44 93 1009.9
20260506124504 48 314 3.0 11.0 0.68 1.85 1.42 90 1009.9
20260506123004 50 5 4.0 20.0 0.28 1.45 1.02 89 1009.8
20260506121503 51 297 5.0 22.0 0.00 1.17 0.74 89 1009.3
20260506120005 53 121 2.0 11.0 0.03 1.17 0.74 95 1009.7
20260506114512 53 117 1.0 7.0 0.05 1.17 0.74 95 1009.7
20260506113004 52 113 1.0 6.0 0.05 1.17 0.74 95 1009.8
20260506111503 52 154 2.0 9.0 0.05 1.17 0.73 95 1009.7
20260506110003 52 136 3.0 10.0 0.03 1.15 0.70 95 1009.6
20260506104507 51 138 5.0 10.0 0.00 1.13 0.68 95 1009.6
20260506103004 51 174 6.0 15.0 0.00 1.13 0.68 95 1009.8
20260506101504 51 148 4.0 10.0 0.00 1.12 0.67 95 1009.9
20260506100015 51 154 3.0 13.0 0.00 1.13 0.67 95 1009.7
20260506094508 51 242 3.0 8.0 0.00 1.14 0.67 96 1009.8
20260506093006 51 225 4.0 10.0 0.01 1.15 0.67 96 1009.7
20260506091504 51 242 2.0 10.0 0.01 1.17 0.67 96 1009.6
20260506090007 51 251 6.0 15.0 0.01 1.18 0.67 96 1009.6
20260506084507 51 163 5.0 13.0 0.00 1.20 0.66 96 1009.7
20260506083008 51 146 3.0 10.0 0.00 1.19 0.66 96 1009.7
20260506081513 51 145 4.0 12.0 0.00 1.20 0.66 96 1009.8
20260506073009 51 215 5.0 11.0 0.00 1.22 0.66 96 1009.7
20260506071510 51 192 2.0 11.0 0.00 1.23 0.65 96 1009.8
20260506061510 51 118 5.0 10.0 0.00 1.40 0.64 96 1009.9
20260506044515 51 141 3.0 9.0 0.12 1.44 0.63 96 1010.6
20260506043016 51 116 2.0 7.0 0.16 1.44 0.62 96 1010.7
20260506041516 51 139 3.0 7.0 0.23 1.41 0.59 95 1010.8
20260506040017 51 136 1.0 5.0 0.30 1.37 0.54 95 1010.9
20260506034515 51 136 2.0 6.0 0.27 1.34 0.51 95 1010.9
20260506033026 51 313 0.0 3.0 0.22 1.29 0.45 95 1011.0
20260506031529 51 186 0.0 2.0 0.11 1.18 0.35 95 1011.1
20260506030018 51 232 0.0 2.0 0.00 1.07 0.23 95 1011.4
20260506024524 51 209 0.0 2.0 0.00 1.07 0.23 95 1011.7
20260506023018 51 308 1.0 3.0 0.00 1.07 0.23 95 1011.8
20260506021521 51 210 0.0 2.0 0.00 1.07 0.23 95 1012.0
20260506020018 51 198 0.0 2.0 0.00 1.06 0.22 95 1012.1
20260506014522 51 198 0.0 2.0 0.00 1.06 0.22 95 1012.1
20260506013022 51 196 0.0 2.0 0.00 1.06 0.22 95 1012.1
20260506011520 51 196 0.0 1.0 0.00 1.06 0.22 95 1012.3
20260506010046 51 196 0.0 2.0 0.00 1.05 0.22 95 1012.5
20260506004522 51 196 0.0 2.0 0.00 1.05 0.22 95 1012.7
20260506003023 51 172 0.0 2.0 0.00 1.05 0.22 95 1012.9
20260506001522 51 184 0.0 2.0 0.00 1.05 0.22 95 1013.0
20260506000022 51 179 0.0 2.0 0.03 1.05 0.22 95 1013.0
20260505234522 51 134 1.0 2.0 0.03 1.04 0.21 95 1013.3
20260505233025 51 134 0.0 2.0 0.07 1.04 0.21 95 1013.4
20260505231517 51 124 0.0 3.0 0.18 1.04 0.21 95 1013.5
20260505230031 51 136 1.0 2.0 0.18 1.02 0.18 95 1013.6
20260505224526 51 136 0.0 2.0 0.18 1.00 0.17 95 1013.7
20260505223028 51 135 0.0 2.0 0.14 0.96 0.13 95 1013.7
20260505221524 51 206 0.0 2.0 0.06 0.85 0.02 95 1013.7
20260505220024 51 148 0.0 2.0 0.03 0.83 0.00 95 1013.8
20260505214522 51 137 0.0 2.0 0.03 0.81 0.81 95 1014.0
20260505213028 51 118 0.0 2.0 0.03 0.81 0.81 95 1014.2
20260505211526 51 117 0.0 2.0 0.02 0.79 0.79 94 1014.3
20260505210026 51 119 1.0 3.0 0.05 0.79 0.79 95 1014.3
20260505204521 51 136 0.0 2.0 0.07 0.78 0.78 94 1014.4
20260505203007 51 130 0.0 2.0 0.12 0.77 0.77 94 1014.5
20260505201510 51 130 0.0 2.0 0.14 0.77 0.77 94 1014.5